Weather History for Denton, TX

Change the Weather History Date:

Sunday, August 17, 2014

  Actual Average Record
Temperature  
Mean Temperature 80 °F -  
Max Temperature 90 °F 94 °F 106 °F (2006)
Min Temperature 72 °F 71 °F 62 °F (1999)
Cooling Degree Days 16    
Growing Degree Days 30 (Base 50)    
Moisture  
Dew Point 71 °F    
Average Humidity 80    
Maximum Humidity 96    
Minimum Humidity 50    
Precipitation  
Precipitation 0.00 in - - ()
Sea Level Pressure  
Sea Level Pressure 29.92 in    
Wind  
Wind Speed 13 mph (South)    
Max Wind Speed 24 mph    
Max Gust Speed 33 mph    
Visibility 10 miles    
Events Rain , Thunderstorm    
Averages and records for this station are not official NWS values.
T = Trace of Precipitation, MM = Missing Value Source: NWS Daily Summary

Daily Weather History Graph

Daily Weather History Graph

Search for Another Location

Airport:

Trip Planner

Search our weather history database for the weather conditions in past years. The results will help you decide how hot, cold, wet, or windy it might be!

Date:

Astronomy

Aug. 17, 2014 Rise Set
Actual Time 6:52 AM CDT 8:12 PM CDT
Civil Twilight 6:26 AM CDT 8:38 PM CDT
Nautical Twilight 5:55 AM CDT 9:09 PM CDT
Astronomical Twilight 5:23 AM CDT 9:41 PM CDT
Moon 12:20 AM CDT 2:15 PM CDT
Length of Visible Light 14h 11m
Length of Day
13h 19m
Waning Gibbous, 48% of the Moon is Illuminated
Aug 17
Waning Gibbous
Aug 25
New
Sep 2
First Quarter
Sep 8
Full
Sep 15
Last Quarter

Hourly Weather History & Observations

Time (CDT) Temp. Heat Index Dew Point Humidity Pressure Visibility Wind Dir Wind Speed Gust Speed Precip Events Conditions
12:53 AM 79.0 °F - 71.1 °F 77% 29.91 in 10.0 mi WNW 9.2 mph - N/A Rain Light Rain
2:53 AM 78.1 °F - 71.1 °F 79% 29.87 in 10.0 mi SSE 11.5 mph - N/A Rain Light Rain
3:53 AM 78.1 °F - 73.0 °F 84% 29.86 in 10.0 mi SE 8.1 mph - N/A   Mostly Cloudy
4:25 AM 78.1 °F - 73.0 °F 84% 29.92 in 10.0 mi West 9.2 mph - N/A Thunderstorm Thunderstorm
4:45 AM 78.1 °F - 72.0 °F 81% 29.93 in 10.0 mi West 11.5 mph - N/A Rain , Thunderstorm Light Rain
4:53 AM 77.0 °F - 73.0 °F 88% 29.91 in 2.0 mi WSW 10.4 mph - N/A Rain , Thunderstorm Light Rain
4:57 AM 77.0 °F - 73.0 °F 88% 29.93 in 4.0 mi SW 9.2 mph - N/A Rain , Thunderstorm Light Thunderstorms and Rain
5:15 AM 75.9 °F - 73.0 °F 91% 29.94 in 10.0 mi SSW 9.2 mph - N/A Rain , Thunderstorm Light Rain
5:33 AM 77.0 °F - 71.1 °F 82% 29.93 in 10.0 mi SSW 18.4 mph 24.2 mph N/A Rain , Thunderstorm Light Thunderstorms and Rain
5:48 AM 75.2 °F - 71.6 °F 89% 29.93 in 10.0 mi South 15.0 mph - N/A Rain , Thunderstorm Rain
5:53 AM 75.9 °F - 72.0 °F 87% 29.91 in 10.0 mi South 16.1 mph - N/A Rain , Thunderstorm Light Rain
6:53 AM 73.9 °F - 68.0 °F 82% 29.90 in 10.0 mi SE 13.8 mph - N/A Rain , Thunderstorm Light Rain
7:08 AM 73.0 °F - 68.0 °F 84% 29.92 in 10.0 mi SE 15.0 mph - N/A Rain Light Rain
7:46 AM 73.0 °F - 70.0 °F 90% 29.93 in 8.0 mi ESE 17.3 mph - N/A Rain , Thunderstorm Heavy Thunderstorms and Rain
7:53 AM 73.0 °F - 70.0 °F 90% 29.92 in 10.0 mi SE 18.4 mph - N/A Rain , Thunderstorm Light Thunderstorms and Rain
8:10 AM 73.0 °F - 70.0 °F 90% 29.95 in 10.0 mi SE 16.1 mph - N/A Rain , Thunderstorm Light Rain
8:21 AM 73.0 °F - 72.0 °F 96% 29.96 in 10.0 mi SSE 13.8 mph - N/A Thunderstorm Thunderstorm
8:37 AM 73.0 °F - 71.1 °F 93% 29.97 in 10.0 mi SE 17.3 mph - N/A Rain , Thunderstorm Light Rain
8:50 AM 73.4 °F - 69.8 °F 88% 29.98 in 10.0 mi SE 18.4 mph - N/A Rain Light Rain
8:53 AM 73.0 °F - 70.0 °F 90% 29.96 in 10.0 mi SE 17.3 mph - N/A Rain Light Rain
9:02 AM 73.0 °F - 70.0 °F 90% 29.98 in 10.0 mi SE 24.2 mph 33.4 mph N/A Rain , Thunderstorm Light Rain
9:17 AM 73.0 °F - 70.0 °F 90% 29.98 in 10.0 mi SE 17.3 mph 27.6 mph N/A Rain Light Rain
9:53 AM 72.0 °F - 70.0 °F 93% 29.96 in 6.0 mi SSE 19.6 mph 27.6 mph N/A Rain Heavy Rain
10:53 AM 72.0 °F - 68.0 °F 87% 29.96 in 10.0 mi SSE 11.5 mph - N/A   Mostly Cloudy
11:53 AM 75.9 °F - 70.0 °F 82% 29.96 in 10.0 mi South 15.0 mph - N/A   Clear
12:53 PM 79.0 °F - 71.1 °F 77% 29.96 in 10.0 mi South 13.8 mph - N/A   Partly Cloudy
1:53 PM 84.0 °F 87.8 °F 69.1 °F 61% 29.94 in 10.0 mi South 16.1 mph - N/A   Clear
2:53 PM 86.0 °F 90.7 °F 70.0 °F 59% 29.93 in 10.0 mi SSW 17.3 mph - N/A   Clear
3:53 PM 88.0 °F 92.1 °F 69.1 °F 53% 29.90 in 10.0 mi SSW 12.7 mph - N/A   Clear
4:53 PM 89.1 °F 92.9 °F 68.0 °F 50% 29.88 in 10.0 mi SSW 13.8 mph - N/A   Clear
5:53 PM 89.1 °F 94.1 °F 70.0 °F 53% 29.86 in 10.0 mi South 12.7 mph - N/A   Clear
6:53 PM 88.0 °F 92.1 °F 69.1 °F 53% 29.85 in 10.0 mi South 11.5 mph - N/A   Clear
7:53 PM 84.9 °F 89.4 °F 70.0 °F 61% 29.88 in 10.0 mi SSE 6.9 mph - N/A   Clear
8:53 PM 82.0 °F 86.3 °F 71.1 °F 69% 29.89 in 10.0 mi SE 9.2 mph - N/A   Clear
9:53 PM 80.1 °F 83.8 °F 72.0 °F 76% 29.91 in 10.0 mi SSE 9.2 mph - N/A   Clear
10:53 PM 79.0 °F - 72.0 °F 79% 29.91 in 10.0 mi SSE 8.1 mph - N/A   Clear
11:53 PM 75.9 °F - 73.0 °F 91% 29.90 in 10.0 mi SSE 5.8 mph - N/A   Clear